TimeCDT,TemperatureF,Dew PointF,Humidity,Sea Level PressureIn,VisibilityMPH,Wind Direction,Wind SpeedMPH,Gust SpeedMPH,PrecipitationIn,Events,Conditions,WindDirDegrees,DateUTC
12:15 AM,58.6,52.2,79,29.67,10.0,ENE,10.4,16.1,N/A,,Clear,60,2014-05-08 05:15:00
12:35 AM,58.3,51.6,78,29.67,10.0,NNE,10.4,24.2,N/A,,Clear,30,2014-05-08 05:35:00
12:55 AM,58.5,50.9,76,29.66,10.0,NNE,16.1,27.6,N/A,,Clear,30,2014-05-08 05:55:00
1:15 AM,58.3,50.9,76,29.68,10.0,NNE,15.0,18.4,N/A,,Clear,30,2014-05-08 06:15:00
1:35 AM,57.7,51.1,78,29.68,10.0,NE,12.7,-,N/A,Thunderstorm,Clear,40,2014-05-08 06:35:00
1:55 AM,57.2,50.7,79,29.66,10.0,NNE,12.7,-,N/A,,Clear,30,2014-05-08 06:55:00
2:15 AM,56.8,50.2,78,29.65,10.0,NNE,13.8,-,N/A,,Clear,30,2014-05-08 07:15:00
2:35 AM,56.3,50.0,79,29.64,10.0,NE,12.7,24.2,N/A,,Clear,40,2014-05-08 07:35:00
2:55 AM,55.4,50.0,82,29.64,10.0,NE,12.7,-,N/A,,Clear,40,2014-05-08 07:55:00
3:15 AM,55.0,50.0,83,29.62,10.0,NNE,12.7,-,N/A,,Clear,20,2014-05-08 08:15:00
3:35 AM,55.0,50.2,84,29.62,10.0,NNE,11.5,-,N/A,,Scattered Clouds,20,2014-05-08 08:35:00
3:55 AM,55.0,50.0,83,29.61,10.0,NNE,18.4,24.2,N/A,,Scattered Clouds,30,2014-05-08 08:55:00
4:15 AM,54.1,49.6,85,29.59,10.0,NE,24.2,-,N/A,,Clear,40,2014-05-08 09:15:00
4:35 AM,53.8,49.8,86,29.59,10.0,NE,20.7,28.8,N/A,,Scattered Clouds,40,2014-05-08 09:35:00
4:55 AM,53.8,50.0,87,29.59,10.0,NE,19.6,27.6,N/A,,Mostly Cloudy,50,2014-05-08 09:55:00
5:15 AM,53.8,50.2,88,29.61,10.0,NE,13.8,-,N/A,,Mostly Cloudy,50,2014-05-08 10:15:00
5:35 AM,52.7,49.6,89,29.58,7.0,NE,16.1,26.5,N/A,,Scattered Clouds,50,2014-05-08 10:35:00
5:55 AM,52.2,49.6,91,29.57,7.0,NE,16.1,23.0,N/A,,Clear,50,2014-05-08 10:55:00
6:15 AM,51.8,49.3,91,29.58,7.0,NE,11.5,19.6,N/A,,Scattered Clouds,50,2014-05-08 11:15:00
6:35 AM,51.8,49.5,92,29.58,5.0,NE,11.5,-,N/A,,Scattered Clouds,50,2014-05-08 11:35:00
6:55 AM,51.4,49.3,92,29.59,5.0,NE,11.5,-,N/A,,Clear,50,2014-05-08 11:55:00
7:15 AM,51.8,49.6,92,29.60,5.0,NE,8.1,-,N/A,,Scattered Clouds,50,2014-05-08 12:15:00
7:35 AM,51.8,49.8,93,29.60,4.0,NE,6.9,-,N/A,,Scattered Clouds,50,2014-05-08 12:35:00
7:55 AM,53.1,50.7,92,29.61,5.0,NE,5.8,-,N/A,,Mostly Cloudy,50,2014-05-08 12:55:00
8:15 AM,53.6,50.9,91,29.60,5.0,NE,5.8,-,N/A,,Overcast,40,2014-05-08 13:15:00
8:35 AM,53.8,51.1,91,29.62,5.0,NW,6.9,-,N/A,,Mostly Cloudy,320,2014-05-08 13:35:00
8:55 AM,53.8,51.1,91,29.63,5.0,NW,11.5,-,N/A,,Overcast,310,2014-05-08 13:55:00
9:15 AM,53.6,50.5,89,29.63,5.0,NW,16.1,-,N/A,,Scattered Clouds,310,2014-05-08 14:15:00
9:35 AM,52.3,48.9,88,29.64,5.0,WNW,23.0,33.4,N/A,,Mostly Cloudy,300,2014-05-08 14:35:00
9:55 AM,49.3,46.6,90,29.65,5.0,NW,18.4,-,N/A,,Overcast,320,2014-05-08 14:55:00
10:15 AM,48.4,45.7,90,29.66,7.0,NW,19.6,25.3,N/A,,Overcast,310,2014-05-08 15:15:00
10:35 AM,48.4,45.5,90,29.67,7.0,NW,19.6,-,N/A,,Overcast,310,2014-05-08 15:35:00
10:55 AM,48.2,45.1,89,29.69,7.0,WNW,19.6,26.5,N/A,,Overcast,300,2014-05-08 15:55:00
11:15 AM,47.1,44.4,90,29.70,2.5,WNW,18.4,28.8,N/A,,Overcast,300,2014-05-08 16:15:00
11:35 AM,44.6,42.4,92,29.73,2.0,WNW,23.0,33.4,N/A,,Overcast,290,2014-05-08 16:35:00
12:15 PM,44.8,41.0,87,29.75,10.0,WNW,24.2,34.5,N/A,,Mostly Cloudy,300,2014-05-08 17:15:00
12:35 PM,46.2,40.1,79,29.75,10.0,WNW,28.8,34.5,N/A,,Mostly Cloudy,300,2014-05-08 17:35:00
12:55 PM,47.1,40.5,78,29.75,10.0,NW,26.5,33.4,N/A,,Mostly Cloudy,310,2014-05-08 17:55:00
1:15 PM,48.7,41.2,75,29.76,10.0,NW,25.3,29.9,N/A,,Mostly Cloudy,310,2014-05-08 18:15:00
1:35 PM,49.6,41.5,74,29.76,10.0,NW,25.3,31.1,N/A,,Scattered Clouds,310,2014-05-08 18:35:00
1:55 PM,51.1,41.4,69,29.76,10.0,NW,20.7,31.1,N/A,,Scattered Clouds,310,2014-05-08 18:55:00
2:15 PM,51.1,41.4,69,29.76,10.0,NW,23.0,29.9,N/A,,Mostly Cloudy,310,2014-05-08 19:15:00
2:35 PM,51.6,41.0,67,29.77,10.0,NW,27.6,33.4,N/A,,Mostly Cloudy,310,2014-05-08 19:35:00
2:55 PM,52.5,40.8,64,29.77,10.0,WNW,29.9,34.5,N/A,,Scattered Clouds,300,2014-05-08 19:55:00
3:15 PM,52.9,40.8,64,29.77,10.0,NW,29.9,34.5,N/A,,Scattered Clouds,310,2014-05-08 20:15:00
3:35 PM,51.6,40.3,65,29.78,10.0,WNW,27.6,34.5,N/A,,Scattered Clouds,300,2014-05-08 20:35:00
3:55 PM,52.0,41.0,66,29.77,10.0,NW,25.3,33.4,N/A,,Scattered Clouds,320,2014-05-08 20:55:00
4:15 PM,52.0,40.8,66,29.77,10.0,NNW,26.5,33.4,N/A,,Scattered Clouds,330,2014-05-08 21:15:00
4:35 PM,53.2,41.7,65,29.77,10.0,NW,25.3,32.2,N/A,,Scattered Clouds,320,2014-05-08 21:35:00
4:55 PM,54.5,41.4,61,29.78,10.0,NW,20.7,32.2,N/A,,Scattered Clouds,320,2014-05-08 21:55:00
5:15 PM,53.2,40.5,62,29.78,10.0,NW,21.9,-,N/A,,Scattered Clouds,320,2014-05-08 22:15:00
5:35 PM,54.1,41.0,61,29.80,10.0,NW,21.9,26.5,N/A,,Scattered Clouds,310,2014-05-08 22:35:00
5:55 PM,53.4,40.6,62,29.80,10.0,NNW,20.7,28.8,N/A,,Clear,330,2014-05-08 22:55:00
6:15 PM,53.1,40.3,62,29.82,10.0,NNW,20.7,25.3,N/A,,Clear,330,2014-05-08 23:15:00
6:35 PM,53.2,40.1,61,29.83,10.0,NW,19.6,26.5,N/A,,Clear,320,2014-05-08 23:35:00
6:55 PM,53.2,40.5,62,29.83,10.0,NW,20.7,25.3,N/A,,Clear,320,2014-05-08 23:55:00
7:15 PM,51.8,39.7,63,29.84,10.0,NW,19.6,25.3,N/A,,Clear,310,2014-05-09 00:15:00
7:55 PM,50.2,38.8,65,29.87,10.0,NNW,17.3,24.2,N/A,,Scattered Clouds,330,2014-05-09 00:55:00
8:15 PM,50.0,38.5,65,29.88,10.0,NW,18.4,21.9,N/A,,Mostly Cloudy,320,2014-05-09 01:15:00
8:35 PM,49.5,37.9,65,29.89,10.0,NW,17.3,24.2,N/A,,Overcast,320,2014-05-09 01:35:00
8:55 PM,49.1,37.9,65,29.89,10.0,NNW,19.6,-,N/A,,Overcast,330,2014-05-09 01:55:00
9:15 PM,48.4,37.9,67,29.90,10.0,NNW,17.3,-,N/A,,Overcast,330,2014-05-09 02:15:00
9:35 PM,48.2,37.4,66,29.90,10.0,NW,16.1,-,N/A,,Overcast,320,2014-05-09 02:35:00
9:55 PM,48.2,37.6,67,29.91,10.0,NW,17.3,-,N/A,,Overcast,320,2014-05-09 02:55:00
10:15 PM,47.3,37.2,68,29.92,10.0,NW,13.8,-,N/A,,Overcast,320,2014-05-09 03:15:00
10:35 PM,45.7,36.7,71,29.92,10.0,NW,15.0,20.7,N/A,,Mostly Cloudy,320,2014-05-09 03:35:00
10:55 PM,44.6,36.3,73,29.92,10.0,NNW,13.8,-,N/A,,Mostly Cloudy,330,2014-05-09 03:55:00
11:15 PM,44.6,36.5,73,29.92,10.0,NNW,13.8,-,N/A,,Mostly Cloudy,330,2014-05-09 04:15:00
11:35 PM,44.2,36.9,75,29.92,10.0,NW,10.4,-,N/A,,Mostly Cloudy,310,2014-05-09 04:35:00
11:55 PM,43.2,36.3,77,29.92,10.0,NW,13.8,-,N/A,,Mostly Cloudy,320,2014-05-09 04:55:00